Location: Newark
(48.3453°N, 0.5589°E)
Time: 12:54:22
(UTC+00:00)

A-11 Canister half - Pass Details

Date: 14 December 2019
Orbit: 1517 x 1683 km, 47.2° (Epoch: 27 January)

Event Time Altitude Azimuth Distance (km) Brightness Sun altitude
Rises 16:45:54 0° 289° (WNW) 4,848 12.3 -6.9°
Reaches altitude 10° 16:49:07 10° 284° (WNW) 3,881 11.9 -7.4°
Maximum altitude 16:58:30 49° 214° (SW) 2,062 10.1 -8.8°
Drops below altitude 10° 17:08:04 10° 144° (SE) 3,939 11.0 -10.2°
Sets 17:11:22 0° 139° (SE) 4,925 11.5 -10.7°
